Cumshewa Island, British Columbia

6:47 PM PDT on May 21, 2018 (GMT -0700)
Cumshewa Island

Weather History for CWZL - February, 2013

Change the Weather History Date:

Tuesday, February 12, 2013

  Actual Average (CYZP) Record (CYZP)
Temperature  
Mean Temperature 44 °F -  
Max Temperature 47 °F 42 °F 53 °F (2015)
Min Temperature 40 °F 34 °F 31 °F (2018)
Degree Days  
Heating Degree Days 22    
Moisture  
Dew Point 38 °F    
Average Humidity 76    
Maximum Humidity 90    
Minimum Humidity 62    
Precipitation  
Precipitation 0.00 in - - ()
Sea Level Pressure  
Sea Level Pressure 29.91 in    
Wind  
Wind Speed 16 mph ()    
Max Wind Speed 28 mph    
Max Gust Speed -    
Averages and records for this station are not official NWS values.
T = Trace of Precipitation, MM = Missing Value Source: Averaged Metar Reports

Daily Weather History Graph

Daily Weather History Graph

Search for Another Location

Airport or City:

Astronomy

Feb. 12, 2013 Rise Set
Actual Time 8:08 AM PST 5:53 PM PST
Civil Twilight 7:32 AM PST 6:29 PM PST
Nautical Twilight 6:52 AM PST 7:09 PM PST
Astronomical Twilight 6:12 AM PST 7:49 PM PST
Moon 8:40 AM PST (2/12) 9:36 PM PST (2/12)
Length of Visible Light 10h 56m
Length of Day
9h 44m
Waxing Crescent, 8% of the Moon is Illuminated
Feb 12
Waxing Crescent
Feb 17
First Quarter
Feb 25
Full
Mar 4
Last Quarter
Mar 11
New

Hourly Weather History & Observations

Time (PST) Temp. Windchill Dew Point Humidity Pressure Visibility Wind Dir Wind Speed Gust Speed Precip Events Conditions
12:00 AM 43.5 °F 33.6 °F 40.1 °F 88% 29.91 in - South 27.6 mph - N/A   Unknown
1:00 AM 44.2 °F 34.8 °F 40.6 °F 87% 29.86 in - South 26.5 mph - N/A   Unknown
2:00 AM 44.4 °F 35.5 °F 41.5 °F 90% 29.86 in - SSE 24.2 mph - N/A   Unknown
3:00 AM 45.7 °F 37.4 °F 41.2 °F 84% 29.83 in - South 23.0 mph - N/A   Unknown
4:00 AM 47 °F - 41 °F 72% 29.81 in - South 15.0 mph - -  
4:00 AM 47.3 °F - 40.8 °F 78% 29.81 in - South 15.0 mph - N/A   Unknown
5:00 AM 47.3 °F - 40.6 °F 78% 29.79 in - South 10.4 mph - N/A   Unknown
6:00 AM 47.8 °F - 41.2 °F 78% 29.76 in - SSW 9.2 mph - N/A   Unknown
7:00 AM 47.8 °F - 40.8 °F 77% 29.74 in - WSW 26.5 mph - N/A   Unknown
8:00 AM 46.6 °F - 40.3 °F 79% 29.73 in - SW 18.4 mph - N/A   Unknown
9:00 AM 46.4 °F 39.2 °F 40.1 °F 79% 29.73 in - SW 18.4 mph - N/A   Unknown
10:00 AM 45 °F - 41 °F 80% 29.74 in - SSW 11.5 mph - -  
10:00 AM 45.3 °F 39.7 °F 40.8 °F 84% 29.74 in - SSW 11.5 mph - N/A   Unknown
11:00 AM 45.3 °F 43.0 °F 41.2 °F 85% 29.75 in - West 4.6 mph - N/A   Unknown
12:00 PM 46.4 °F 40.4 °F 40.8 °F 81% 29.77 in - West 13.8 mph - N/A   Unknown
1:00 PM 46.9 °F - 39.4 °F 75% 29.79 in - West 9.2 mph - N/A   Unknown
2:00 PM 47.5 °F - 39.6 °F 74% 29.83 in - West 13.8 mph - N/A   Unknown
3:00 PM 46.2 °F 40.1 °F 38.8 °F 75% 29.89 in - WNW 13.8 mph - N/A   Unknown
4:00 PM 46 °F - 37 °F 62% 29.95 in - WNW 17.3 mph - -  
4:00 PM 45.7 °F 38.6 °F 37.0 °F 72% 29.95 in - WNW 17.3 mph - N/A   Unknown
5:00 PM 44.6 °F 38.8 °F 35.6 °F 71% 30.01 in - WNW 11.5 mph - N/A   Unknown
6:00 PM 42.4 °F 35.0 °F 31.3 °F 65% 30.05 in - WNW 15.0 mph - N/A   Unknown
7:00 PM 41.9 °F 35.4 °F 31.6 °F 67% 30.10 in - WNW 11.5 mph - N/A   Unknown
8:00 PM 41.0 °F 34.3 °F 31.3 °F 68% 30.14 in - WNW 11.5 mph - N/A   Unknown
9:00 PM 40.6 °F 36.0 °F 32.0 °F 71% 30.18 in - WNW 6.9 mph - N/A   Unknown
10:00 PM 40 °F - 31 °F 62% 30.22 in - NW 12.7 mph - -  
10:00 PM 40.3 °F 33.0 °F 31.5 °F 71% 30.22 in - NW 12.7 mph - N/A   Unknown
11:00 PM 40.1 °F 34.7 °F 30.9 °F 70% 30.25 in - WNW 8.1 mph - N/A   Unknown